Zurück zum Katalog

STARLINK-36753

AktivKommunikationSSO
NORAD 67694·PAYLOAD·🇺🇸 United States

Gestartet Feb 7, 2026 von Vandenberg Space Force Base

Loading…

Nächste Überflüge (nächste 24 Stunden)

TLE

AktuellSource: CelesTrak SupGP

Epoche: Sep 15, 2026, 03:05 UTC

1 67694C 26025B   26258.12895833  .00008405  00000+0  26089-3 0  2581
2 67694  97.2854   8.0426 0000965  97.0168  80.9350 15.33437497    12

Verfolge STARLINK-36753 in Echtzeit mit AllMySat

Download on the App Store